STARLINK-11450, 62518

Orbit data source: Space-Track

STARLINK-11450, 62518 is a payload satellite owned by SpaceX/Seattle (US) in LEO that was launched on Wed, 08 Jan 2025 UTC via an FALCON 9 launch vehicle from the Air Force Eastern Test Range (AFETR). Payload-class satellites include a variety of spacecraft equipped with specific instruments for various scientific and technological missions. These include communications satellites like Starlink; space stations such as the ISS; scientific satellites like the Hubble; Earth observation satellites from companies like Planet Labs, Umbra, and HawkEye 360; GPS; miniature CubeSats for education and research; and military/defense satellites.

Loading next visibility...
Identifier
62518, 2025-004H
Orbit
LEO
Last TLE update
5 hours ago
Origin
Manufacturer
SpaceX/Seattle
Mission
Operational Commercial Communications
Bus & Motor
STARLINK V2M, Unknown motor
Mass
730 kg wet, ~700 kg dry
Launch date (UTC)
2025-01-08 (6 months ago)
Launch vehicle
FALCON 9
Launch site
Air Force Eastern Test Range (AFETR)
Object type
Payload
Rocket body
Debris
Shape & HBR
Box + 2 Pan, 29 m
Radar Cross Section
36.964 m², Large (>1 m²)

Expand to show TLE details & history

TLE from 5 hours ago
0 STARLINK-11450
1 62518U 25004H   25182.19059806  .00165740  00000-0  12680-2 0  9991
2 62518  43.0024 146.7362 0002013 265.2104  94.8534 15.70868660 28563
Epoch: 2025-07-01T04:34Z
TLE epoch observation values (Epoch: 2025-07-01T04:34:27.672Z)
Latitude
-0°
Longitude
158.63129°
Altitude
356.3 km
Speed
7.697 km/s
True Right ascension
09h 46m 56s
True Declination
0° 00' 00"
Sunlit
Object was in daylight at epoch
Visualization orbit readout
Latitude
38.56194°
Longitude
-144.37459°
Altitude
359.627 km
Speed
7.698 km/s
Apparent Right ascension
11h 25m 11s
Apparent Declination
0° 43' 49"
Sunlit
Object is in daylight
Visualization observer readout
Local Sidereal Time
21:04:05
Azimuth
312.738° NW
Elevation
-38.165°
Doppler factor
1
Orbital elements
Apogee altitude
359.75 km
Perigee altitude
357.038 km
Semi-major axis
6,736.531 km
Eccentricity
0.0002
Inclination
43.0024°
RAAN
146.7362°
Arg. of periapsis
265.2104°
True anomaly
Unknown
Mean anomaly
94.8534°
Eccentric anomaly
Unknown
Mean motion
3.92544 °/min
Orbital period
91.71 mins
BSTAR
0.001268
Loading maneuver chart data...
Loading SW <> Apogee altitude chart data...
Loading historical data...
Loading historical data...
Loading historical data...
Loading historical data...
Loading historical data...
Loading historical data...
Loading historical data...

STARLINK-11450 Visibility forecast

Observer location: undefined°, undefined°

Span
Click to sort rows by Start time (UTC) header in descending order
Start Az.
Max El. time (UTC)
Max El. Az.
Max El.
End time (UTC)
End Az.
4 mins2025-07-02 00:36:48.276Z198.484° SSW2025-07-02 00:38:48.276Z148.616° SSE21.299°2025-07-02 00:40:48.276Z98.627° ESE
4 mins2025-07-02 02:12:48.276Z261.072° W2025-07-02 02:14:48.276Z8.427° NNE43.544°2025-07-02 02:16:48.276Z68.099° E
4 mins2025-07-02 03:49:48.276Z306.726° NW2025-07-02 03:50:48.276Z349.571° N34.042°2025-07-02 03:53:48.276Z75.721° E
4 mins2025-07-02 05:25:48.276Z288.003° WNW2025-07-02 05:26:48.276Z286.908° WNW41.549°2025-07-02 05:29:48.276Z109.466° ESE
|